Blair, NE

5:03 PM CDT on August 20, 2017 (GMT -0500)
Blair Municipal

Weather History for KBTA - January, 2013

Change the Weather History Date:

Sunday, January 27, 2013

  Actual Average (KOMA) Record (KOMA)
Temperature  
Mean Temperature 38 °F -  
Max Temperature 41 °F 31 °F 64 °F (1934)
Min Temperature 36 °F 11 °F -21 °F (1936)
Degree Days  
Heating Degree Days 26    
Moisture  
Dew Point 35 °F    
Average Humidity 88    
Maximum Humidity 96    
Minimum Humidity 53    
Precipitation  
Precipitation 0.09 in - - ()
Sea Level Pressure  
Sea Level Pressure 29.80 in    
Wind  
Wind Speed 11 mph (SSE)    
Max Wind Speed 17 mph    
Max Gust Speed 23 mph    
Visibility 4 miles    
Events Fog , Rain    
Averages and records for this station are not official NWS values.
T = Trace of Precipitation, MM = Missing Value Source: NWS Daily Summary

Daily Weather History Graph

Daily Weather History Graph

Search for Another Location

Airport or City:

Trip Planner

Search our weather history database for the weather conditions in past years. The results will help you decide how hot, cold, wet, or windy it might be!

Date:

Astronomy

Jan. 27, 2013 Rise Set
Actual Time 7:40 AM CST 5:34 PM CST
Civil Twilight 7:10 AM CST 6:04 PM CST
Nautical Twilight 6:37 AM CST 6:37 PM CST
Astronomical Twilight 6:04 AM CST 7:10 PM CST
Moon 6:31 PM CST (1/27) 7:32 AM CST (1/27)
Length of Visible Light 10h 53m
Length of Day
9h 54m
Full, 100% of the Moon is Illuminated
Jan 27
Full
Feb 3
Last Quarter
Feb 10
New
Feb 17
First Quarter
Feb 25
Full

Hourly Weather History & Observations

Time (CST) Temp. Windchill Dew Point Humidity Pressure Visibility Wind Dir Wind Speed Gust Speed Precip Events Conditions
12:15 AM 39.4 °F 30.7 °F 24.4 °F 55% 29.98 in 10.0 mi SSE 16.1 mph - N/A   Overcast
12:35 AM 39.4 °F 31.1 °F 24.4 °F 55% 29.97 in 10.0 mi SSE 15.0 mph 18.4 mph N/A   Overcast
12:55 AM 39.4 °F 32.3 °F 24.4 °F 55% 29.96 in 10.0 mi SE 11.5 mph 16.1 mph N/A   Overcast
1:15 AM 39.4 °F 31.4 °F 24.3 °F 55% 29.96 in 10.0 mi SE 13.8 mph - N/A   Overcast
1:35 AM 39.7 °F 31.5 °F 24.3 °F 54% 29.95 in 10.0 mi SSE 15.0 mph 19.6 mph N/A   Overcast
1:55 AM 40.1 °F 32.7 °F 24.3 °F 53% 29.95 in 10.0 mi SSE 12.7 mph - N/A   Overcast
2:15 AM 39.9 °F 32.5 °F 24.1 °F 53% 29.95 in 10.0 mi SSE 12.7 mph 19.6 mph N/A   Overcast
2:35 AM 39.4 °F 31.8 °F 25.0 °F 56% 29.95 in 10.0 mi SSE 12.7 mph 16.1 mph N/A   Light Drizzle
2:55 AM 39.2 °F 30.8 °F 25.9 °F 59% 29.94 in 10.0 mi SSE 15.0 mph 21.9 mph N/A   Light Drizzle
3:15 AM 39.2 °F 30.2 °F 27.1 °F 62% 29.93 in 10.0 mi SSE 17.3 mph 23.0 mph N/A   Light Drizzle
3:35 AM 38.3 °F 29.0 °F 30.6 °F 74% 29.93 in 10.0 mi SSE 17.3 mph - N/A Rain Light Rain
3:55 AM 37.2 °F 29.1 °F 32.7 °F 84% 29.91 in 5.0 mi SSE 12.7 mph - 0.01 in Rain Light Rain
4:15 AM 36.9 °F 27.8 °F 33.4 °F 87% 29.91 in 5.0 mi SSE 15.0 mph - 0.01 in Rain Rain
4:35 AM 36.9 °F 28.2 °F 34.0 °F 89% 29.90 in 5.0 mi SSE 13.8 mph - 0.03 in Rain Rain
4:55 AM 36.9 °F 27.8 °F 34.3 °F 91% 29.89 in 3.0 mi SSE 15.0 mph 19.6 mph 0.06 in Rain Light Rain
5:15 AM 36.7 °F 28.9 °F 34.5 °F 92% 29.88 in 4.0 mi SE 11.5 mph - 0.01 in Rain Light Rain
5:35 AM 36.7 °F 28.4 °F 34.7 °F 93% 29.87 in 4.0 mi SE 12.7 mph 18.4 mph 0.02 in Rain Light Rain
6:15 AM 36.7 °F 28.4 °F 34.7 °F 93% 29.84 in 7.0 mi SE 12.7 mph - N/A   Overcast
6:35 AM 36.7 °F 27.6 °F 34.7 °F 93% 29.87 in 7.0 mi SSE 15.0 mph 18.4 mph N/A   Overcast
6:55 AM 36.7 °F 29.4 °F 34.7 °F 93% 29.85 in 7.0 mi SE 10.4 mph - N/A   Mostly Cloudy
7:15 AM 36.7 °F 28.0 °F 34.7 °F 93% 29.84 in 7.0 mi SE 13.8 mph - N/A   Mostly Cloudy
7:35 AM 36.7 °F 27.6 °F 34.7 °F 93% 29.84 in 10.0 mi SE 15.0 mph 18.4 mph N/A   Overcast
7:55 AM 37.2 °F 29.1 °F 34.7 °F 91% 29.83 in 10.0 mi SE 12.7 mph 21.9 mph N/A   Overcast
8:15 AM 37.4 °F 28.9 °F 34.7 °F 90% 29.83 in 10.0 mi SE 13.8 mph - N/A   Overcast
8:35 AM 37.4 °F 29.8 °F 34.7 °F 90% 29.82 in 7.0 mi SE 11.5 mph - N/A   Overcast
8:55 AM 37.9 °F 28.9 °F 35.2 °F 90% 29.82 in 7.0 mi SSE 16.1 mph - N/A   Overcast
9:15 AM 37.8 °F 29.8 °F 35.2 °F 91% 29.81 in 7.0 mi SE 12.7 mph - N/A   Overcast
9:35 AM 37.9 °F 30.0 °F 35.6 °F 91% 29.81 in 7.0 mi SE 12.7 mph 17.3 mph N/A   Overcast
9:55 AM 38.3 °F 29.7 °F 35.6 °F 90% 29.80 in 7.0 mi SSE 15.0 mph - N/A   Overcast
10:15 AM 38.3 °F 30.1 °F 35.8 °F 91% 29.79 in 4.0 mi SSE 13.8 mph - N/A   Overcast
10:35 AM 38.3 °F 30.5 °F 36.0 °F 91% 29.79 in 2.5 mi SSE 12.7 mph - N/A   Overcast
10:55 AM 38.5 °F 31.1 °F 36.5 °F 93% 29.77 in 1.5 mi SSE 11.5 mph 16.1 mph N/A   Overcast
11:15 AM 38.7 °F 31.4 °F 36.9 °F 93% 29.78 in 1.8 mi SSE 11.5 mph - N/A   Overcast
11:35 AM 39.2 °F 33.0 °F 37.4 °F 93% 29.77 in 1.5 mi SSE 9.2 mph - N/A   Overcast
11:55 AM 39.2 °F 33.6 °F 37.6 °F 94% 29.76 in 1.5 mi SSE 8.1 mph - N/A   Overcast
12:15 PM 39.7 °F 33.2 °F 38.3 °F 95% 29.75 in 1.2 mi SSE 10.4 mph - N/A   Overcast
12:35 PM 40.1 °F 34.1 °F 38.5 °F 94% 29.74 in 1.5 mi SSE 9.2 mph - N/A   Overcast
12:55 PM 40.5 °F 34.6 °F 38.8 °F 94% 29.72 in 1.5 mi SSE 9.2 mph - N/A   Overcast
1:15 PM 40.5 °F 34.1 °F 39.0 °F 95% 29.71 in 1.5 mi SSE 10.4 mph - N/A   Overcast
1:35 PM 40.6 °F 35.4 °F 39.2 °F 95% 29.71 in 1.5 mi SSE 8.1 mph - N/A   Overcast
1:55 PM 41.0 °F 35.8 °F 39.4 °F 94% 29.70 in 1.2 mi SSE 8.1 mph - N/A Rain Light Rain
2:15 PM 41.2 °F 36.0 °F 39.7 °F 95% 29.69 in 1.0 mi SE 8.1 mph - N/A Rain Light Rain
2:35 PM 41.2 °F 36.6 °F 39.9 °F 95% 29.69 in 1.2 mi SE 6.9 mph - N/A Rain Light Rain
2:55 PM 41.5 °F 37.8 °F 40.1 °F 95% 29.69 in 1.2 mi SSE 5.8 mph - N/A Rain Light Rain
3:15 PM 41.5 °F 38.6 °F 40.1 °F 95% 29.69 in 1.0 mi SE 4.6 mph - N/A   Light Drizzle
3:35 PM 41.5 °F 39.6 °F 40.1 °F 95% 29.69 in 0.5 mi ESE 3.5 mph - N/A   Light Drizzle
3:55 PM 41.4 °F - 40.1 °F 95% 29.69 in 0.2 mi Calm Calm - N/A Fog Fog
4:15 PM 41.2 °F - 39.7 °F 95% 29.69 in 0.2 mi Calm Calm - N/A Fog Fog
4:35 PM 41.0 °F - 39.7 °F 95% 29.69 in 0.2 mi Calm Calm - N/A   Drizzle
4:55 PM 41.0 °F 38.0 °F 39.6 °F 95% 29.69 in 0.2 mi North 4.6 mph - N/A   Drizzle
5:15 PM 40.8 °F 37.8 °F 39.4 °F 95% 29.70 in 0.2 mi North 4.6 mph - N/A   Drizzle
5:35 PM 40.5 °F 36.5 °F 39.2 °F 95% 29.70 in 0.2 mi North 5.8 mph - N/A Rain Light Rain
5:55 PM 40.1 °F 36.9 °F 38.8 °F 95% 29.70 in 0.2 mi NNE 4.6 mph - N/A Rain Light Rain
6:35 PM 39.7 °F 36.5 °F 38.5 °F 95% 29.71 in 0.2 mi North 4.6 mph - N/A Fog Fog
6:55 PM 39.6 °F 36.3 °F 38.3 °F 95% 29.72 in 0.2 mi North 4.6 mph - N/A Fog Fog
7:15 PM 39.6 °F 37.4 °F 38.3 °F 95% 29.73 in 0.5 mi North 3.5 mph - N/A Fog Fog
7:35 PM 39.6 °F 37.4 °F 38.3 °F 95% 29.73 in 0.5 mi North 3.5 mph - N/A Fog Fog
7:55 PM 39.4 °F - 38.3 °F 96% 29.74 in 0.2 mi Calm Calm - N/A Fog Fog
8:15 PM 39.2 °F - 37.9 °F 95% 29.74 in 0.2 mi Calm Calm - N/A Fog Fog
8:35 PM 39.2 °F - 37.8 °F 95% 29.75 in 0.2 mi Calm Calm - N/A Fog Fog
8:55 PM 38.7 °F 34.3 °F 37.4 °F 95% 29.75 in 0.2 mi WNW 5.8 mph - N/A Fog Fog
9:15 PM 38.3 °F 35.9 °F 36.9 °F 95% 29.76 in 0.2 mi West 3.5 mph - N/A Fog Fog
9:35 PM 38.1 °F 35.7 °F 36.9 °F 95% 29.77 in 0.2 mi West 3.5 mph - N/A Fog Fog
9:55 PM 38.1 °F 32.9 °F 36.7 °F 95% 29.77 in 0.2 mi West 6.9 mph - N/A Fog Fog
10:15 PM 38.3 °F 35.9 °F 36.9 °F 95% 29.77 in 0.5 mi West 3.5 mph - N/A Fog Fog
10:35 PM 37.8 °F 33.3 °F 36.5 °F 95% 29.77 in 0.2 mi WNW 5.8 mph - N/A Fog Fog
10:55 PM 37.6 °F 33.1 °F 36.5 °F 96% 29.78 in 0.2 mi WNW 5.8 mph - N/A Fog Fog
11:15 PM 37.6 °F 35.1 °F 36.5 °F 96% 29.78 in 0.2 mi NW 3.5 mph - N/A Fog Fog
11:35 PM 37.6 °F 35.1 °F 36.5 °F 96% 29.80 in 0.2 mi WNW 3.5 mph - N/A Fog Fog
11:55 PM 37.6 °F 33.1 °F 36.5 °F 96% 29.80 in 0.2 mi WNW 5.8 mph - N/A Fog Fog